Погода в Печищах

Россия / Республика Татарстан     55°46′38″N   48°57′07″E
темп.,
°C
ветер,
м/с
пор.,
м/с
влажн.,
%
обл.,
%
осадки,
мм/ч
давл.,
гПа
погр.,
м
12 апреля, пн
пн1200:00+1ссв2495100 0.2 103492
03:00+1св2685100 0.4 1036134
06:00+2св2886100 0.3 1037185
09:00+6всв4876100 0.3 1038321
12:00+10всв5765100 0.0 1037588
15:00+11в4761100 0.0 1037651
18:00+9в3877100 0.0 1037267
21:00+7в4118689 0.0 1038327
13 апреля, вт
вт1300:00+6вюв4118468 0.0 1037264
03:00+5вюв398888 0.0 1037166
06:00+5юв379395 0.0 1036143
09:00+10ююв4680100 0.0 1036291
12:00+15ююв456698 0.0 1034554
15:00+17ююв455775 0.0 1033846
18:00+14ююв347156 0.0 103264
21:00+11ю228157 0.0 103217
14 апреля, ср
ср1400:00+9ю228161 0.0 103113
03:00+8ю22805 0.0 103112
06:00+7ююв227342 0.0 103127
09:00+13ююв354869 0.0 1030331
12:00+17ююв453245 0.0 1029871
15:00+17ююв45376 0.0 1027998
18:00+14ююв33570 0.0 102651
21:00+11ююв22705 0.0 102614
15 апреля, чт
чт1500:00+9ююв22785 0.0 102412
03:00+8ююв22835 0.0 102410
06:00+8ююв22854 0.0 102317
09:00+13ююв23665 0.0 1022330
12:00+17ю23548 0.0 10211141
15:00+18ю234966 0.0 10191557
18:00+16ю2259100 0.0 101823
21:00+14ююз2270100 0.0 101729
16 апреля, пт
пт1600:00+12юз227571 0.0 101716
03:00+12юз1176100 0.0 101610
06:00+11з227420 0.0 101515
09:00+15зсз34553 0.0 1014454
12:00+18зсз56365 0.0 10142130
15:00+18сз673680 0.0 10132245
18:00+7с9137672 0.0 1017705
21:00+6с51168100 0.1 10181261